User: anonymous   Login
Location: Unspecified
(43.0000°N, 0.0000°E)
Time: 16:18:41
(UTC+00:00)
Language:

POLYITAN 1 - Orbit

View from above orbital plane
View from above orbital plane
View from above satellite
View from above satellite

Ground track
Ground track

The orbit data is extracted from the following two-line orbital elements,

1 40042U 14033AJ  19199.74225435  .00000158  00000-0  23017-4 0  9993
2 40042  97.9130 119.7039 0013650 315.3599  44.6518 14.88668317275702
Epoch (UTC): 18 July 2019 17:48:50
Eccentricity: 0.0013650
inclination: 97.9130°
perigee height: 592 km
apogee height: 611 km
right ascension of ascending node: 119.7039°
argument of perigee: 315.3599°
revolutions per day: 14.88668317
mean anomaly at epoch: 44.6518°
orbit number at epoch: 27570

The dashed part of the orbit path shows where the satellite is in the earth's shadow,  

DLR